Namest Nad Oslav, Czech Republic

9:20 AM CEST on July 26, 2017 (GMT +0200)
Namest

Weather History for LKNA - February, 2013

Change the Weather History Date:

Tuesday, February 5, 2013

  Actual Average Record
Temperature  
Mean Temperature 36 °F -  
Max Temperature 39 °F - - ()
Min Temperature 32 °F - - ()
Degree Days  
Heating Degree Days 30    
Moisture  
Dew Point 34 °F    
Average Humidity 95    
Maximum Humidity 100    
Minimum Humidity 81    
Precipitation  
Precipitation 0.00 in - - ()
Sea Level Pressure  
Sea Level Pressure 29.64 in    
Wind  
Wind Speed 6 mph ()    
Max Wind Speed 12 mph    
Max Gust Speed -    
Visibility 6.1 miles    
Events Rain    
T = Trace of Precipitation, MM = Missing Value Source: Averaged Metar Reports

Daily Weather History Graph

Daily Weather History Graph

Search for Another Location

Airport or City:

Trip Planner

Search our weather history database for the weather conditions in past years. The results will help you decide how hot, cold, wet, or windy it might be!

Date:

Astronomy

Feb. 05, 2013 Rise Set
Actual Time 7:20 AM CET 4:59 PM CET
Civil Twilight 6:46 AM CET 5:32 PM CET
Nautical Twilight 6:09 AM CET 6:10 PM CET
Astronomical Twilight 5:32 AM CET 6:47 PM CET
Moon 2:52 AM CET (2/5) 11:49 AM CET (2/5)
Length of Visible Light 10h 45m
Length of Day
9h 38m
Waning Crescent, 29% of the Moon is Illuminated
Feb 5
Waning Crescent
Feb 10
New
Feb 17
First Quarter
Feb 25
Full
Mar 4
Last Quarter

Hourly Weather History & Observations

Time (CET) Temp. Windchill Dew Point Humidity Pressure Visibility Wind Dir Wind Speed Gust Speed Precip Events Conditions
12:00 AM 37.4 °F 31.4 °F 35.6 °F 93% 29.80 in 6.2 mi West 8.1 mph - N/A Rain Light Rain
1:00 AM 35.6 °F 29.9 °F 35.6 °F 100% 29.80 in 6.2 mi West 6.9 mph - N/A Rain Light Rain
2:00 AM 33.8 °F 27.7 °F 33.8 °F 100% 29.80 in 6.2 mi West 6.9 mph - N/A Rain Light Rain
3:00 AM 33.8 °F 28.6 °F 33.8 °F 100% 29.77 in 6.2 mi West 5.8 mph - N/A Rain Light Rain
4:00 AM 33.8 °F 28.6 °F 33.8 °F 100% 29.77 in - SSW 5.8 mph - N/A   Clear
5:00 AM 33.8 °F 27.7 °F 33.8 °F 100% 29.77 in 6.2 mi SW 6.9 mph - N/A   Mostly Cloudy
6:00 AM 33.8 °F 27.0 °F 33.8 °F 100% 29.74 in - SW 8.1 mph - N/A   Clear
7:00 AM 35.6 °F 29.2 °F 33.8 °F 93% 29.74 in - SW 8.1 mph - N/A   Clear
8:00 AM 35.6 °F 29.9 °F 33.8 °F 93% 29.71 in - SW 6.9 mph - N/A   Clear
9:00 AM 35.6 °F 30.7 °F 33.8 °F 93% 29.68 in 6.2 mi SSW 5.8 mph - N/A   Mostly Cloudy
10:00 AM 35.6 °F 30.7 °F 35.6 °F 100% 29.68 in 6.2 mi SSW 5.8 mph - N/A   Overcast
11:00 AM 37.4 °F 29.8 °F 35.6 °F 93% 29.65 in 6.2 mi South 11.5 mph - N/A   Overcast
12:00 PM 37.4 °F 31.4 °F 37.4 °F 100% 29.62 in 6.2 mi South 8.1 mph - N/A Rain Light Rain
1:00 PM 37.4 °F 29.8 °F 35.6 °F 93% 29.62 in 5.6 mi WSW 11.5 mph - N/A Rain Light Rain
2:00 PM 35.6 °F 28.6 °F 35.6 °F 100% 29.59 in 6.2 mi WSW 9.2 mph - N/A   Mostly Cloudy
3:00 PM 39.2 °F 33.0 °F 35.6 °F 87% 29.56 in - WSW 9.2 mph - N/A   Clear
4:00 PM 35.6 °F 29.9 °F 33.8 °F 93% 29.53 in - WSW 6.9 mph - N/A   Clear
5:00 PM 33.8 °F 29.6 °F 33.8 °F 100% 29.53 in - South 4.6 mph - N/A   Clear
6:00 PM 35.6 °F 29.2 °F 33.8 °F 93% 29.53 in - South 8.1 mph - N/A   Clear
7:00 PM 35.6 °F 30.7 °F 33.8 °F 93% 29.53 in - West 5.8 mph - N/A   Clear
8:00 PM 35.6 °F 32.8 °F 30.2 °F 81% 29.50 in - SSW 3.5 mph - N/A   Clear
9:00 PM 32.0 °F 26.4 °F 30.2 °F 93% 29.53 in - SW 5.8 mph - N/A   Clear
10:00 PM 32.0 °F - 32.0 °F 100% 29.53 in - Calm Calm - N/A   Clear
11:00 PM 32.0 °F 28.7 °F 30.2 °F 93% 29.50 in - SW 3.5 mph - N/A   Clear